Regional Weather Roundup
Issued by NWS

Home | Current Version | Previous Version | Text Only | Print | Product List | Glossary On
Versions: 1 2 3 4 5 6 7 8 9 10 11 12 13 14 15 16 17 18 19 20 21 22 23 24 25 26 27 28 29 30 31 32 33 34 35 36 37 38 39 40 41 42 43 44 45 46 47 48 49 50
007
ASUS43 KOAX 281702
RWRNE

WEATHER ROUNDUP FOR NEBRASKA
NATIONAL WEATHER SERVICE OMAHA NE
1200 PM CDT FRI APR 28 2017

NOTES: SATELLITE DATA IS BEING USED TO AUGMENT CLOUD COVER ABOVE
       12000 FEET.
       "FAIR" INDICATES FEW OR NO CLOUDS BELOW 12,000 FEET WITH NO
       SIGNIFICANT WEATHER AND/OR OBSTRUCTIONS TO VISIBILITY.

  * THESE STATIONS DO NOT REPORT WEATHER SUCH AS RAIN...SNOW OR FOG.

NEZ001>004-019>022-054>056-281800-
NEBRASKA PANHANDLE

CITY           SKY/WX    TMP DP  RH WIND       PRES   REMARKS
SCOTTSBLUFF    HVY SNOW  34  31  88 E17       29.80R VSB 1/4 WCI  23
ALLIANCE       LGT SNOW  33  31  92 E23       29.81R VSB 3/4 WCI  21
CHADRON        LGT SNOW  34  32  92 E16       29.89R FOG     WCI  24
KIMBALL        SNOW      35  33  94 E15G21    29.74R VSB 1/4 WCI  25
SIDNEY         LGT SNOW  35  32  88 E17       29.76R FOG     WCI  25
$$

NEZ057>060-069>072-079>082-281800-
SOUTHWEST NEBRASKA

CITY           SKY/WX    TMP DP  RH WIND       PRES   REMARKS
NORTH PLATTE   LGT SNOW  35  34  96 NE16G23   29.80R VSB 1   WCI  25
IMPERIAL       CLOUDY    38  35  89 NE17      29.77R WCI  28
LEXINGTON      LGT SNOW  34  33  93 NE15G21   29.78R VSB 3/4 WCI  25
MCCOOK         LGT RAIN  40  39  97 NE22      29.75R FOG     WCI  30
OGALLALA       LGT SNOW  35  34  96 E14       29.80R VSB 1   WCI  26
$$

NEZ005>010-023>029-035>040-094-281800-
NORTH CENTRAL NEBRASKA

CITY           SKY/WX    TMP DP  RH WIND       PRES   REMARKS
VALENTINE      CLOUDY    42  28  57 E21G26    29.90R
AINSWORTH      CLOUDY    39  31  74 E13G22    29.89R WCI  31
BROKEN BOW     LGT SNOW  34  32  92 NE21G31   29.82R FOG     WCI  22
O`NEILL        CLOUDY    40  28  62 E17G26    29.90R WCI  31
ORD            LGT SNOW  34  31  88 NE17G24   29.84R FOG     WCI  23
THEDFORD       SNOW      34  33  96 E14       29.86R VSB 1/4 WCI  25
$$

NEZ041-046>049-061>064-073>077-083>087-281800-
SOUTH CENTRAL NEBRASKA

CITY           SKY/WX    TMP DP  RH WIND       PRES   REMARKS
GRAND ISLAND   LGT RAIN  37  37 100 NE24G32   29.79R FOG     WCI  26
AURORA         LGT RAIN  37  36  98 NE20G25   29.77S WCI  26
HASTINGS       LGT RAIN  38  36  92 NE18G28   29.76R FOG     WCI  28
HEBRON         CLOUDY    42  41  97 NE16G22   29.71R FOG
HOLDREGE       CLOUDY    38  37  93 NE24G30   29.75R FOG     WCI  27
KEARNEY *      CLOUDY    36  32  87 NE15      29.78R WCI  26
YORK           LGT RAIN  37  37 100 NE28      29.75S WCI  25
$$

NEZ011>018-030>034-042>045-281800-
NORTHEAST NEBRASKA

CITY           SKY/WX    TMP DP  RH WIND       PRES   REMARKS
NORFOLK        LGT SNOW  34  32  92 NE12      29.86R FOG     WCI  25
ALBION         LGT SNOW  35  32  90 NE16G22   29.85R WCI  25
BLAIR          CLOUDY    38  36  92 NE23G30   29.79S WCI  28
FREMONT        CLOUDY    38  37  96 NE14G22   29.83R WCI  30
TEKAMAH        LGT RAIN  39  35  86 NE22      29.85S WCI  29
WAYNE          LGT RAIN  37  36  94 E14       29.88S WCI  29
$$

NEZ050>053-065>068-078-088>093-281800-
SOUTHEAST NEBRASKA

CITY           SKY/WX    TMP DP  RH WIND       PRES   REMARKS
LINCOLN        LGT RAIN  40  38  93 NE16G23   29.80R FOG     WCI  31
OMAHA EPPLEY   LGT RAIN  39  33  79 NE18G29   29.83S WCI  30
BEATRICE       CLOUDY    41  40  96 NE16G24   29.73S FOG
FALLS CITY     LGT RAIN  44  43  96 NE13G21   29.72R FOG
NEBRASKA CITY  CLOUDY    39  39 100 NE18G24   29.77S WCI  30
$$

NEZ044-045-051>053-067-281800-
OMAHA AREA

CITY           SKY/WX    TMP DP  RH WIND       PRES   REMARKS
OMAHA EPPLEY   LGT RAIN  39  33  79 NE18G29   29.83S WCI  30
BLAIR          CLOUDY    38  36  92 NE23G30   29.79S WCI  28
FREMONT        CLOUDY    38  37  96 NE14G22   29.83R WCI  30
MILLARD        DRIZZLE   40  38  89 NE8G20    29.80F
OFFUTT AFB     LGT RAIN  39  36  89 NE16G30   29.79F WCI  30
WAHOO          LGT RAIN  39  36  91 NE21      29.81R WCI  29
$$




USA.gov is the U.S. government's official web portal to all federal, state and local government web resources and services.